User: anonymous   Login
Location: Cuzcurrita-R�o Tir�n
(42.5415°N, 2.9642°W)
Time: 20:06:01
(UTC+00:00)
Language:

Cosmos 2228 - Orbit

View from above orbital plane
View from above orbital plane
View from above satellite
View from above satellite

Ground track
Ground track

The orbit data is extracted from the following two-line orbital elements,

1 22286U 92094A   21111.79336686  .00000296  00000-0  29219-4 0  9992
2 22286  82.5172 128.9000 0022264 133.8997 226.4064 14.88261777510307
Epoch (UTC): 21 April 2021 19:02:26
Eccentricity: 0.0022264
inclination: 82.5172°
perigee height: 588 km
apogee height: 619 km
right ascension of ascending node: 128.9000°
argument of perigee: 133.8997°
revolutions per day: 14.88261777
mean anomaly at epoch: 226.4064°
orbit number at epoch: 51030

The dashed part of the orbit path shows where the satellite is in the earth's shadow,  

DLR